This is the latest recevied weather packets stored in our database for station/object KM6YFK-13. If no packets are shown the sender has not sent any weather packets the latest 1 day(s).
| Time | Temp. | Humidity | Pressure | Rain* | Wind** | Luminosity | Snow |
|---|---|---|---|---|---|---|---|
| 1778012308 | 25.56° C | 47% | 1016.1 hPa | 0 mm | 0.89 m/s, 87° | 683 W/m² | - |
| 1778012010 | 25.56° C | 47% | 1016.1 hPa | 0 mm | 0.89 m/s, 96° | 644 W/m² | - |
| 1778011710 | 25.56° C | 47% | 1016.1 hPa | 0 mm | 0.89 m/s, 102° | 663 W/m² | - |
| 1778011413 | 25.56° C | 49% | 1016.2 hPa | 0 mm | 0.89 m/s, 142° | 641 W/m² | - |
| 1778011110 | 25.56° C | 48% | 1016.2 hPa | 0 mm | 0.89 m/s, 145° | 632 W/m² | - |
| 1778010811 | 25.56° C | 48% | 1016.3 hPa | 0 mm | 1.34 m/s, 99° | 685 W/m² | - |
| 1778010507 | 25.56° C | 49% | 1016.4 hPa | 0 mm | 0.89 m/s, 107° | 766 W/m² | - |
| 1778010211 | 25.56° C | 49% | 1016.4 hPa | 0 mm | 0.89 m/s, 99° | 772 W/m² | - |
| 1778009909 | 25.56° C | 50% | 1016.5 hPa | 0 mm | 0.89 m/s, 122° | 752 W/m² | - |
| 1778009607 | 25.56° C | 50% | 1016.6 hPa | 0 mm | 0.89 m/s, 122° | 746 W/m² | - |
| 1778009310 | 25.56° C | 49% | 1016.6 hPa | 0 mm | 0.89 m/s, 92° | 734 W/m² | - |
| 1778009010 | 25.56° C | 49% | 1016.5 hPa | 0 mm | 0.89 m/s, 105° | 788 W/m² | - |
| 1778008708 | 25.56° C | 49% | 1016.7 hPa | 0 mm | 0.89 m/s, 89° | 766 W/m² | - |
| 1778008407 | 25.56° C | 46% | 1016.7 hPa | 0 mm | 0.89 m/s, 89° | 820 W/m² | - |
| 1778008109 | 26.11° C | 47% | 1016.7 hPa | 0 mm | 0.89 m/s, 100° | 857 W/m² | - |
| 1778007807 | 25.56° C | 49% | 1016.8 hPa | 0 mm | 0.89 m/s, 94° | 879 W/m² | - |
| 1778007510 | 25.56° C | 48% | 1016.8 hPa | 0 mm | 0.89 m/s, 107° | 872 W/m² | - |
| 1778007208 | 25.56° C | 50% | 1016.9 hPa | 0 mm | 0.89 m/s, 106° | 901 W/m² | - |
| 1778006910 | 26.11° C | 50% | 1017 hPa | 0 mm | 0.89 m/s, 93° | 914 W/m² | - |
| 1778006608 | 26.11° C | 49% | 1016.9 hPa | 0 mm | 0.89 m/s, 115° | 911 W/m² | - |
| 1778006310 | 26.11° C | 50% | 1016.9 hPa | 0 mm | 0.89 m/s, 104° | 939 W/m² | - |
| 1778006008 | 26.11° C | 49% | 1016.9 hPa | 0 mm | 0.89 m/s, 121° | 938 W/m² | - |
| 1778005710 | 25.56° C | 51% | 1017 hPa | 0 mm | 0.89 m/s, 102° | 940 W/m² | - |
| 1778005409 | 25.56° C | 51% | 1017 hPa | 0 mm | 1.34 m/s, 97° | 965 W/m² | - |
| 1778005110 | 25.56° C | 50% | 1017 hPa | 0 mm | 0.89 m/s, 91° | 971 W/m² | - |
* Rain latest hour (hover to see other rain measurements)
** Current wind speed in m/s (hover to see current wind gust speed)